Regional Weather Roundup
Issued by NWS

Home | Current Version | Previous Version | Text Only | Print | Product List | Glossary Off
Versions: 1 2 3 4 5 6 7 8 9 10 11 12 13 14 15 16 17 18 19 20 21 22 23 24 25 26 27 28 29 30 31 32 33 34 35 36 37 38 39 40 41 42 43 44 45 46 47 48 49 50

238
ASUS44 KLIX 210311
RWRLA
LOUISIANA WEATHER ROUNDUP
NATIONAL WEATHER SERVICE NEW ORLEANS LA
1000 PM CDT MON APR 20 2015

NOTE: "FAIR" INDICATES FEW OR NO CLOUDS BELOW 12,000 FEET WITH NO
      SIGNIFICANT WEATHER AND/OR OBSTRUCTIONS TO VISIBILITY.
      SKY/WX - SKY CONDITION AND SIGNIFICANT WEATHER.
      TMP - AIR TEMPERATURE.    DP   - DEWPOINT TEMPERATURE.
      RH  - RELATIVE HUMIDITY.  PRES - PRESSURE.
      HX  - HEAT INDEX.         WCI  - WIND CHILL INDEX.

*  THESE STATIONS ARE NOT NWS OR FAA STATIONS AND ARE NOT UNDER
   NWS QUALITY CONTROL.

LAZ040-048-061>063-065-066-069-210400-
SOUTHEAST LOUISIANA

CITY           SKY/WX    TMP DP  RH WIND       PRES   REMARKS
N.O. AUDUBON     N/A     70  58  66 MISG        N/A
N.O. INTL ARPT CLOUDY    69  50  50 N8        29.97R
N.O. LAKEFRONT CLOUDY    73  52  47 NW15      29.97R
SLIDELL        CLOUDY    65  55  70 NW3       29.96R
BATON ROUGE    CLOUDY    62  56  80 CALM      29.98R
BOOTHVILLE     MOCLDY    71  61  70 NW7       29.96R
BELLE CHASSE   CLOUDY    69  53  56 N3        29.96R
BOGALUSA*        N/A     63  55  76 CALM      29.98R
GALLIANO*      CLOUDY    68  58  71 NW3       29.97R
NEW ROADS*     FAIR      62  56  81 CALM      29.98R
GONZALES*      FAIR      62  58  87 CALM      29.98R
HAMMOND*       CLOUDY    63  54  72 CALM      29.99R
HOUMA*         CLOUDY    66  56  70 NW5       29.97R
PORT FOURCHON* CLEAR     72  57  60 N10       29.99S

$$

LAZ041-044-053-054-210400-
SOUTHWEST LOUISIANA

CITY           SKY/WX    TMP DP  RH WIND       PRES   REMARKS
LAKE CHARLES   MOCLDY    59  53  80 CALM      30.00R
LAFAYETTE      CLOUDY    66  54  65 CALM      29.99R
PATTERSON      MOCLDY    66  54  63 CALM      30.00R
SALT POINT       N/A     66  55  67 CALM      29.98R
NEW IBERIA     CLOUDY    66  53  63 CALM      29.99R
CHENAULT AIRPK CLEAR     63  52  67 CALM      29.99

$$

LAZ027-028-210400-
CENTRAL LOUISIANA

CITY           SKY/WX    TMP DP  RH WIND       PRES   REMARKS
FORT POLK      CLOUDY    59  52  79 NE1       29.98R
ALEXANDRIA INT MOCLDY    58  51  78 CALM      29.97R
ALEXANDRIA     MOCLDY    54  52  93 CALM      29.98R

$$

LAZ001-002-210400-
NORTHWEST LOUISIANA

CITY           SKY/WX    TMP DP  RH WIND       PRES   REMARKS
SHREVEPORT     PTCLDY    57  49  74 CALM      29.98R
BARKSDALE AFB  PTCLDY    57  48  73 CALM      29.98R
DTN SHREVEPORT PTCLDY    56  48  74 CALM      29.98R

$$

LAZ014-016-210400-
NORTHEAST LOUISIANA

CITY           SKY/WX    TMP DP  RH WIND       PRES   REMARKS
MONROE         PTCLDY    57  50  77 CALM      29.99R
TALLULAH       PTCLDY    55  52  89 CALM      29.98R

$$




USA.gov is the U.S. government's official web portal to all federal, state and local government web resources and services.